Simultaneous Nadir Overpasses (SNOs) Predictions

Prediction of SNOs between METOP-A and NOAA-19 Satellite Orbit:

Table of predicted SNOs for the next 14.0 days since TLE Epoch: 9/27/2014
Index Date (METOP-A) Time (METOP-A) Lat,Lon (METOP-A) SZA (METOP-A ) Date (NOAA-19) Time (NOAA-19) Lat,Lon (NOAA-19) SZA (NOAA-19 ) Distance(km) Time Diff (sec)
1 09/29/2014 11:02:49 74.30, 9.76 76.70 09/29/2014 11:01:37 74.31, 9.78 76.71 0.71 72
2 09/29/2014 11:53:30 -74.32, 177.12 103.28 09/29/2014 11:52:32 -74.28, 177.12 103.31 3.86 58
3 09/29/2014 12:44:11 74.28, -15.64 76.71 09/29/2014 12:43:40 74.29, -15.68 76.72 1.45 31
4 09/29/2014 13:34:53 -74.25, 151.60 103.32 09/29/2014 13:34:35 -74.26, 151.66 103.30 2.45 18
5 09/29/2014 14:25:33 74.26, -41.03 76.72 09/29/2014 14:25:43 74.27, -41.14 76.72 3.45 10
6 09/29/2014 15:16:15 -74.23, 126.21 103.31 09/29/2014 15:16:38 -74.24, 126.20 103.30 1.84 23
7 09/29/2014 16:06:56 74.19, -66.55 76.68 09/29/2014 16:07:45 74.20, -66.48 76.68 2.29 49
8 09/29/2014 16:57:37 -74.20, 100.81 103.30 09/29/2014 16:58:41 -74.22, 100.73 103.29 3.07 64
9 09/29/2014 17:48:30 73.58, -93.37 76.11 09/29/2014 17:49:36 73.60, -90.47 76.09 91.17 66
10 10/09/2014 17:41:04 74.77, -88.59 81.11 10/09/2014 17:39:55 74.78, -90.92 81.14 68.15 69
11 10/09/2014 18:31:55 -74.31, 77.50 99.34 10/09/2014 18:30:41 -74.32, 77.61 99.32 3.59 74
12 10/09/2014 19:22:35 74.31,-115.15 80.68 10/09/2014 19:21:49 74.33,-115.20 80.71 2.58 46
13 10/09/2014 20:13:17 -74.28, 52.11 99.33 10/09/2014 20:12:44 -74.30, 52.14 99.31 2.37 33
14 10/09/2014 21:03:57 74.29,-140.55 80.69 10/09/2014 21:03:51 74.26,-140.54 80.66 2.77 6
15 10/09/2014 21:54:39 -74.26, 26.71 99.33 10/09/2014 21:54:47 -74.29, 26.68 99.31 2.74 8
16 10/09/2014 22:45:19 74.27,-165.94 80.69 10/09/2014 22:45:54 74.25,-166.00 80.67 2.93 35
17 10/09/2014 23:36:01 -74.24, 1.32 99.32 10/09/2014 23:36:49 -74.22, 1.34 99.35 2.50 48
18 10/10/2014 00:26:43 74.15, 168.41 80.60 10/10/2014 00:27:56 74.18, 168.66 80.63 8.29 73
19 10/10/2014 01:17:35 -73.63, -25.51 99.90 10/10/2014 01:18:41 -73.67, -22.78 99.88 85.53 66




NCC Satellite Simultaneous Nadir Overpasses (SNOs) Prediction Service
